This demonstration page uses our WeatherBlox Daily Observations layout. Learn more.

Left ArrowRight Arrow

38.20091, -84.87328

Hourly Observations for July 17, 2022

Temp ( °F °C ) Dew Point ( °F °C ) Humidity (%) Winds ( mph kmh ) Pressure ( in mb ) Visibility ( mi km ) Precip ( " mm )
12:53 am 00:53 Mostly Cloudy 79 26.1 66 18.9 65 65 S 5 7 29.94 1014 10 16 0.00 0.00
1:53 am 01:53 Mostly Clear 79 26.1 67 19.4 67 67 S 5 7 29.93 1014 10 16 0.00 0.00
2:53 am 02:53 Clear 79 26.1 68 20 69 69 S 6 9 29.92 1013 10 16 0.00 0.00
3:53 am 03:53 Mostly Clear 78 25.6 68 20 71 71 SSW 5 7 29.92 1013 10 16 0.00 0.00
4:53 am 04:53 Partly Cloudy 78 25.6 68 20 71 71 S 7 11 29.91 1013 10 16 0.00 0.00
5:53 am 05:53 Clear 77 25 68 20 74 74 SSW 7 11 29.90 1013 10 16 0.00 0.00
6:53 am 06:53 Cloudy 77 25 68 20 74 74 SSW 6 9 29.91 1013 10 16 0.00 0.00
7:53 am 07:53 Sunny 78 25.6 68 20 71 71 SSW 6 9 29.92 1013 10 16 0.00 0.00
8:53 am 08:53 Partly Cloudy 79 26.1 69 20.6 72 72 SW 10 17 29.94 1014 10 16 0.00 0.00
9:53 am 09:53 Sunny 79 26.1 69 20.6 72 72 WSW 8 13 29.96 1015 10 16 0.00 0.00
10:53 am 10:53 Mostly Cloudy with Light Rain 76 24.4 70 21.1 82 82 W 7 11 29.94 1014 10 16 0.00 0.00
11:53 am 11:53 Partly Cloudy 78 25.6 72 22.2 82 82 SSW 13 20 29.94 1014 10 16 0.01 0.25
12:53 pm 12:53 Sunny 79 26.1 71 21.7 77 77 SW 12 19 29.96 1014 10 16 0.00 0.00
1:53 pm 13:53 Partly Cloudy 80 26.7 72 22.2 76 76 WSW 8 13 29.96 1015 10 16 0.00 0.00
2:53 pm 14:53 Mostly Cloudy with Light Rain 77 25 72 22.2 85 85 VRB 5 7 29.96 1015 7 11 0.02 0.51
3:53 pm 15:53 Mostly Cloudy 77 25 72 22.2 85 85 SW 7 11 29.93 1014 10 16 0.01 0.25
4:53 pm 16:53 Mostly Cloudy 80 26.7 73 22.8 79 79 SW 7 11 29.91 1013 10 16 0.00 0.00
5:00 pm 17:00 Partly Cloudy 80 26.7 73 22.8 79 79 SW 10 17 29.89 1012 10 16 0.00 0.00
5:53 pm 17:53 Partly Cloudy 80 26.7 72 22.2 76 76 S 9 15 29.91 1013 10 16 0.00 0.00
6:53 pm 18:53 Mostly Cloudy 79 26.1 71 21.7 77 77 SSW 14 22 29.89 1012 10 16 0.00 0.00
7:53 pm 19:53 Mostly Cloudy 78 25.6 70 21.1 76 76 SSW 9 15 29.89 1012 10 16 0.00 0.00
8:53 pm 20:53 Mostly Cloudy 77 25 70 21.1 79 79 S 6 9 29.88 1012 10 16 0.00 0.00
9:53 pm 21:53 Cloudy 76 24.4 71 21.7 85 85 S 8 13 29.88 1012 10 16 0.00 0.00
10:53 pm 22:53 Mostly Cloudy with Light Rain 74 23.3 72 22.2 94 94 SSW 9 15 29.91 1013 7 11 0.11 2.79
11:53 pm 23:53 Mostly Cloudy with Rain 73 22.8 70 21.1 90 90 SW 8 13 29.91 1013 5 8 0.11 2.79

Powered by AerisWeather